This demonstration page uses our WeatherBlox Daily Observations layout. Learn more.

Left ArrowRight Arrow

39.95238, -75.16362

Hourly Observations for May 11, 2018

Temp ( °F °C ) Dew Point ( °F °C ) Humidity (%) Winds ( mph kmh ) Pressure ( in mb ) Visibility ( mi km ) Precip ( " mm )
12:54 am 00:54 Mostly Clear 67 19.4 58 14.4 73 73 WSW 5 7 29.86 1011 10 16 0.00 0.00
1:54 am 01:54 Partly Cloudy 65 18.3 59 15 81 81 SW 8 13 29.86 1011 10 16 0.00 0.00
2:54 am 02:54 Partly Cloudy 64 17.8 61 16.1 90 90 SW 6 9 29.87 1011 10 16 0.00 0.00
3:54 am 03:54 Partly Cloudy 65 18.3 59 15 81 81 W 7 11 29.89 1012 10 16 0.00 0.00
4:54 am 04:54 Mostly Cloudy 65 18.3 58 14.4 78 78 NNW 3 6 29.90 1012 10 16 0.00 0.00
5:54 am 05:54 Mostly Sunny 62 16.7 57 13.9 84 84 Calm 29.93 1013 10 16 0.00 0.00
6:54 am 06:54 Partly Cloudy 65 18.3 58 14.4 78 78 NW 5 7 29.95 1014 10 16 0.00 0.00
7:54 am 07:54 Mostly Sunny 67 19.4 58 14.4 73 73 NNW 7 11 29.96 1015 10 16 0.00 0.00
8:54 am 08:54 Mostly Sunny 70 21.1 56 13.3 61 61 N 6 9 29.98 1015 10 16 0.00 0.00
9:54 am 09:54 Mostly Sunny 71 21.7 54 12.2 55 55 VRB 7 11 30.00 1016 10 16 0.00 0.00
10:54 am 10:54 Partly Cloudy 72 22.2 53 11.7 52 52 NW 12 19 30.00 1016 10 16 0.00 0.00
11:54 am 11:54 Mostly Cloudy 73 22.8 50 10 44 44 NW 13 20 30.02 1017 10 16 0.00 0.00
12:54 pm 12:54 Partly Cloudy 74 23.3 49 9.4 41 41 WNW 13 20 30.01 1016 10 16 0.00 0.00
1:54 pm 13:54 Mostly Cloudy 76 24.4 47 8.3 36 36 N 13 20 30.01 1016 10 16 0.00 0.00
2:54 pm 14:54 Partly Cloudy 76 24.4 42 5.6 30 30 NW 8 13 30.01 1016 10 16 0.00 0.00
3:54 pm 15:54 Partly Cloudy 76 24.4 43 6.1 31 31 VRB 3 6 30.01 1016 10 16 0.00 0.00
4:01 pm 16:01 Partly Cloudy 76 24.4 44 6.7 32 32 W 10 17 30.00 1016 10 16 0.00 0.00
4:54 pm 16:54 Partly Cloudy 77 25 40 4.4 26 26 VRB 6 9 30.01 1016 10 16 0.00 0.00
5:54 pm 17:54 Partly Cloudy 75 23.9 36 2.2 24 24 N 10 17 30.03 1017 10 16 0.00 0.00
6:54 pm 18:54 Partly Cloudy 74 23.3 36 2.2 25 25 N 6 9 30.03 1017 10 16 0.00 0.00
7:54 pm 19:54 Mostly Cloudy 73 22.8 34 1.1 24 24 NNE 6 9 30.04 1017 10 16 0.00 0.00
8:54 pm 20:54 Mostly Cloudy 71 21.7 39 3.9 31 31 E 7 11 30.06 1018 10 16 0.00 0.00
9:54 pm 21:54 Partly Cloudy 64 17.8 47 8.3 54 54 SE 10 17 30.09 1019 10 16 0.00 0.00
10:54 pm 22:54 Mostly Cloudy 62 16.7 44 6.7 52 52 SE 5 7 30.11 1020 10 16 0.00 0.00
11:54 pm 23:54 Mostly Cloudy 61 16.1 44 6.7 54 54 E 3 6 30.11 1020 10 16 0.00 0.00

Powered by AerisWeather